Regional Weather Roundup
Issued by NWS

Home | Current Version | Previous Version | Text Only | Print | Product List | Glossary On
Versions: 1 2 3 4 5 6 7 8 9 10 11 12 13 14 15 16 17 18 19 20 21 22 23 24 25 26 27 28
000
ASUS44 KBMX 171210
RWRAL

ALABAMA REGIONAL WEATHER ROUNDUP
NATIONAL WEATHER SERVICE BIRMINGHAM AL
600 AM CST TUE JAN 17 2017

NOTE: "FAIR" INDICATES FEW OR NO CLOUDS BELOW 12,000 FEET
WITH NO SIGNIFICANT WEATHER AND/OR OBSTRUCTIONS TO VISIBILITY.

THE REMARK "TC" DENOTES TEMPERATURE IN DEGREES CELSIUS.

ALZ001>011-014-016>018-020-171300-
NORTH ALABAMA

CITY           SKY/WX    TMP DP  RH WIND       PRES   REMARKS
MUSCLE SHOALS  MOCLDY    66  59  78 S12       30.07S
6HR MIN TEMP:  65; 6HR MAX TEMP:  67; 6HR PCP: TRACE;

HUNTSVILLE     CLOUDY    64  60  87 S9        30.10S
6HR MIN TEMP:  64; 6HR MAX TEMP:  67; 6HR PCP: TRACE;

DECATUR        CLOUDY    63  61  93 S15       30.10S
6HR MIN TEMP:  63; 6HR MAX TEMP:  66; 6HR PCP: TRACE;

HALEYVILLE     CLOUDY    64  61  90 S13       30.11F
6HR MIN TEMP:  63; 6HR MAX TEMP:  64; 6HR PCP: TRACE;

GADSDEN        CLOUDY    61  55  81 S5        30.16R
6HR MIN TEMP:  58; 6HR MAX TEMP:  62;

$$

ALZ012-013-022-023-030>036-040>044-171300-
WEST CENTRAL ALABAMA

CITY           SKY/WX    TMP DP  RH WIND       PRES   REMARKS
TUSCALOOSA     CLOUDY    64  62  93 S9        30.14R
6HR MIN TEMP:  64; 6HR MAX TEMP:  66;

$$

ALZ015-024>027-033>036-040>044-171300-
CENTRAL ALABAMA

CITY           SKY/WX    TMP DP  RH WIND       PRES   REMARKS
BIRMINGHAM     CLOUDY    63  59  87 S9        30.18R
6HR MIN TEMP:  63; 6HR MAX TEMP:  65;

MONTGOMERY     CLOUDY    58  53  84 CALM      30.18S
6HR MIN TEMP:  55; 6HR MAX TEMP:  63;

SHELBY CO ARPT CLOUDY    62  61  96 S6        30.17R
6HR MIN TEMP:  59; 6HR MAX TEMP:  64;

MAXWELL AFB    CLOUDY    56  56 100 CALM      30.18R
6HR MIN TEMP:  54; 6HR MAX TEMP:  59;

GREENVILLE     CLOUDY    58  56  93 S3        30.17S
6HR MIN TEMP:  57; 6HR MAX TEMP:  61;

$$

ALZ019-021-028-029-037-038-045>048-171300-
EAST CENTRAL ALABAMA

CITY           SKY/WX    TMP DP  RH WIND       PRES   REMARKS
ANNISTON       CLOUDY    60  54  80 CALM      30.18S
6HR MIN TEMP:  55; 6HR MAX TEMP:  65;

ALEXANDER CITY CLOUDY    57  56  97 CALM      30.19R
6HR MIN TEMP:  55; 6HR MAX TEMP:  61;

AUBURN         PTCLDY    57  53  86 S5        30.21S
6HR MIN TEMP:  56; 6HR MAX TEMP:  62;

$$

ALZ051>064-171300-
SOUTHWEST ALABAMA

CITY           SKY/WX    TMP DP  RH WIND       PRES   REMARKS
MOBILE         FOG       66  65  96 SE8       30.16R VSB 1
6HR MIN TEMP:  64; 6HR MAX TEMP:  67;

BROOKLEY FIELD CLOUDY    67  67 100 S7        30.16S FOG
6HR MIN TEMP:  63; 6HR MAX TEMP:  68;

EVERGREEN      FOG       63  62  97 SE3       30.18R VSB 1/4
6HR MIN TEMP:  57; 6HR MAX TEMP:  63;

$$

ALZ049-050-065>069-171300-
SOUTHEAST ALABAMA

CITY           SKY/WX    TMP DP  RH WIND       PRES   REMARKS
DOTHAN         CLOUDY    54  54 100 SE3       30.24R
6HR MIN TEMP:  54; 6HR MAX TEMP:  59;

OZARK          PTCLDY    55  55 100 SE3       30.20R
6HR MIN TEMP:  53; 6HR MAX TEMP:  60;

TROY           PTCLDY    56  56 100 CALM      30.19S
6HR MIN TEMP:  53; 6HR MAX TEMP:  61;

EUFAULA        FAIR      52  50  93 CALM      30.20S FOG
6HR MIN TEMP:  51; 6HR MAX TEMP:  57;

$$




USA.gov is the U.S. government's official web portal to all federal, state and local government web resources and services.